Weather History for Newark Heath, OH

Change the Weather History Date:

Tuesday, December 4, 2012

  Actual Average Record
Temperature  
Mean Temperature 52 °F -  
Max Temperature 62 °F 43 °F 67 °F (1982)
Min Temperature 41 °F 26 °F 2 °F (1966)
Degree Days  
Heating Degree Days 12    
Growing Degree Days 2 (Base 50)    
Moisture  
Dew Point 50 °F    
Average Humidity 84    
Maximum Humidity 100    
Minimum Humidity 72    
Precipitation  
Precipitation 0.48 in - - ()
Sea Level Pressure  
Sea Level Pressure 30.08 in    
Wind  
Wind Speed 6 mph (SW)    
Max Wind Speed 18 mph    
Max Gust Speed 23 mph    
Visibility 8 miles    
Events Fog , Rain , Thunderstorm    
Averages and records for this station are not official NWS values.
T = Trace of Precipitation, MM = Missing Value Source: NWS Daily Summary

Daily Weather History Graph

Daily Weather History Graph

Search for Another Location

Airport:

Trip Planner

Search our weather history database for the weather conditions in past years. The results will help you decide how hot, cold, wet, or windy it might be!

Date:

Astronomy

Dec. 04, 2012 Rise Set
Actual Time 7:35 AM EST 5:04 PM EST
Civil Twilight 7:05 AM EST 5:34 PM EST
Nautical Twilight 6:32 AM EST 6:08 PM EST
Astronomical Twilight 5:59 AM EST 6:41 PM EST
Moon 10:50 PM EST (12/4) 11:29 AM EST (12/4)
Length of Visible Light 10h 28m
Length of Day
9h 28m
Waning Gibbous, 69% of the Moon is Illuminated
Dec 4
Waning Gibbous
Dec 6
Last Quarter
Dec 13
New
Dec 20
First Quarter
Dec 28
Full

Hourly Weather History & Observations

Time (EST) Temp. Windchill Dew Point Humidity Pressure Visibility Wind Dir Wind Speed Gust Speed Precip Events Conditions
12:02 AM 51.8 °F - 50.0 °F 94% 30.11 in 1.8 mi Calm Calm - N/A   Partly Cloudy
12:11 AM 48.2 °F - 48.2 °F 100% 30.12 in 0.5 mi WNW 3.5 mph - N/A Fog Fog
12:17 AM 51.8 °F - 48.2 °F 88% 30.11 in 2.5 mi Calm Calm - N/A   Scattered Clouds
12:24 AM 51.8 °F - 50.0 °F 94% 30.11 in 10.0 mi South 3.5 mph - N/A   Scattered Clouds
12:54 AM 53.1 °F - 48.9 °F 86% 30.11 in 10.0 mi SSW 4.6 mph - N/A   Partly Cloudy
1:54 AM 55.9 °F - 51.1 °F 84% 30.11 in 10.0 mi SSW 5.8 mph - N/A   Clear
2:54 AM 55.9 °F - 50.0 °F 80% 30.12 in 10.0 mi SSW 6.9 mph - N/A   Scattered Clouds
3:54 AM 55.0 °F - 50.0 °F 83% 30.10 in 10.0 mi South 4.6 mph - N/A   Mostly Cloudy
4:54 AM 55.9 °F - 50.0 °F 80% 30.09 in 10.0 mi South 6.9 mph - N/A   Mostly Cloudy
5:54 AM 55.0 °F - 48.9 °F 80% 30.09 in 10.0 mi South 3.5 mph - N/A   Mostly Cloudy
6:54 AM 53.1 °F - 48.0 °F 83% 30.09 in 10.0 mi South 4.6 mph - N/A   Mostly Cloudy
7:54 AM 55.9 °F - 48.9 °F 77% 30.10 in 10.0 mi South 3.5 mph - N/A   Overcast
8:54 AM 57.0 °F - 48.9 °F 74% 30.10 in 10.0 mi South 8.1 mph - N/A   Overcast
9:31 AM 57.2 °F - 50.0 °F 77% 30.09 in 10.0 mi South 8.1 mph - N/A   Overcast
9:54 AM 57.9 °F - 51.1 °F 78% 30.08 in 10.0 mi South 5.8 mph - N/A   Overcast
10:15 AM 59.0 °F - 51.8 °F 77% 30.09 in 10.0 mi South 8.1 mph - N/A   Overcast
10:54 AM 60.1 °F - 52.0 °F 75% 30.08 in 10.0 mi South 4.6 mph - N/A   Overcast
11:54 AM 62.1 °F - 54.0 °F 75% 30.06 in 10.0 mi SSW 9.2 mph - N/A   Overcast
12:09 PM 62.6 °F - 53.6 °F 72% 30.05 in 10.0 mi SSW 13.8 mph 19.6 mph N/A   Overcast
1:54 PM 62.1 °F - 55.9 °F 80% 30.00 in 10.0 mi SSW 11.5 mph - 0.00 in   Overcast
2:54 PM 62.1 °F - 55.9 °F 80% 29.99 in 10.0 mi SSW 12.7 mph - N/A   Overcast
3:54 PM 62.1 °F - 55.9 °F 80% 29.99 in 6.0 mi SSW 15.0 mph 23.0 mph 0.01 in Rain , Thunderstorm Light Rain
4:05 PM 60.8 °F - 57.2 °F 88% 29.99 in 2.0 mi SW 11.5 mph 21.9 mph 0.04 in Rain Rain
4:15 PM 60.8 °F - 57.2 °F 88% 29.99 in 6.0 mi SW 12.7 mph - 0.04 in Rain Light Rain
4:29 PM 60.8 °F - 57.2 °F 88% 29.99 in 4.0 mi SSW 10.4 mph - 0.09 in Rain Light Rain
4:43 PM 60.8 °F - 57.2 °F 88% 29.99 in 10.0 mi SW 11.5 mph - 0.09 in Rain Light Rain
4:54 PM 61.0 °F - 57.0 °F 87% 29.99 in 10.0 mi SW 10.4 mph - 0.09 in Rain Light Rain
5:28 PM 55.4 °F - 53.6 °F 94% 30.02 in 2.0 mi NW 11.5 mph - 0.08 in Rain Heavy Rain
5:49 PM 53.6 °F - 50.0 °F 88% 30.04 in 3.0 mi NW 18.4 mph 21.9 mph 0.13 in Rain Rain
5:54 PM 53.1 °F - 48.9 °F 86% 30.06 in 2.5 mi NW 17.3 mph 21.9 mph 0.17 in Rain Heavy Rain
6:00 PM 51.8 °F - 48.2 °F 88% 30.06 in 3.0 mi NW 11.5 mph 21.9 mph 0.02 in Rain Rain
6:09 PM 51.8 °F - 48.2 °F 88% 30.06 in 5.0 mi NNW 13.8 mph - 0.04 in Rain Light Rain
6:33 PM 48.2 °F - 44.6 °F 87% 30.08 in 10.0 mi NNW 11.5 mph 19.6 mph 0.05 in Rain Light Rain
6:54 PM 48.0 °F - 41.0 °F 77% 30.11 in 9.0 mi NNW 6.9 mph 20.7 mph 0.06 in Rain Light Rain
7:14 PM 46.4 °F 40.7 °F 41.0 °F 81% 30.11 in 5.0 mi North 12.7 mph - 0.04 in Rain Light Rain
7:54 PM 45.0 °F 42.6 °F 39.9 °F 82% 30.13 in 5.0 mi North 4.6 mph - 0.12 in Rain Light Rain
8:54 PM 45.0 °F 43.5 °F 41.0 °F 86% 30.14 in 10.0 mi SW 3.5 mph - 0.02 in Rain Light Rain
9:54 PM 45.0 °F 43.5 °F 41.0 °F 86% 30.14 in 10.0 mi SSW 3.5 mph - 0.01 in   Partly Cloudy
10:54 PM 43.0 °F - 39.9 °F 89% 30.17 in 10.0 mi Calm Calm - N/A   Clear
11:54 PM 41.0 °F 39.0 °F 39.0 °F 93% 30.17 in 10.0 mi South 3.5 mph - N/A   Clear